APJ104 RJCC-RJBB

Flight info

Callsign APJ104
Flight time 1h 59m
Altitude 30000
Route DALBI Y120 TAPPI Y12 ARIKA Y14 GOLDO Y36 ATMUG
Aircraft A320/M-SDE3FGHIRWY/LB1

Departure

Time 2026-04-29 02:52
Airport New Chitose Airport (RJCC)

Arrival

Time 2026-04-29 04:51
Airport Kansai International Airport (RJBB)
Time Latitude Longitude Altitude Speed Heading
2026-04-29 02:33 42.79033 141.67817 82 ft 0 kts 172°
2026-04-29 02:44 42.79040 141.67816 85 ft 3 kts 172°
2026-04-29 02:44 42.79062 141.67812 84 ft 5 kts 172°
2026-04-29 02:44 42.79094 141.67806 83 ft 5 kts 172°
2026-04-29 02:45 42.79120 141.67801 82 ft 2 kts 157°
2026-04-29 02:45 42.79133 141.67790 83 ft 2 kts 121°
2026-04-29 02:45 42.79136 141.67782 69 ft 0 kts 89°
2026-04-29 02:47 42.79136 141.67783 69 ft 0 kts 89°
2026-04-29 02:47 42.79138 141.67830 67 ft 7 kts 86°
2026-04-29 02:48 42.79140 141.67892 74 ft 6 kts 90°
2026-04-29 02:48 42.79135 141.67961 76 ft 11 kts 99°
2026-04-29 02:48 42.79107 141.68088 67 ft 16 kts 112°
2026-04-29 02:48 42.79047 141.68219 75 ft 17 kts 129°
2026-04-29 02:49 42.78955 141.68328 75 ft 18 kts 148°
2026-04-29 02:49 42.78845 141.68394 71 ft 13 kts 163°
2026-04-29 02:49 42.78800 141.68468 79 ft 10 kts 88°
2026-04-29 02:49 42.78809 141.68556 79 ft 9 kts 83°
2026-04-29 02:50 42.78818 141.68649 79 ft 10 kts 82°
2026-04-29 02:50 42.78826 141.68733 82 ft 8 kts 82°
2026-04-29 02:50 42.78823 141.68803 69 ft 7 kts 121°
2026-04-29 02:50 42.78784 141.68823 80 ft 5 kts 171°
2026-04-29 02:51 42.78758 141.68827 81 ft 0 kts 173°
2026-04-29 02:51 42.78736 141.68831 82 ft 21 kts 173°
2026-04-29 02:51 42.78318 141.68903 80 ft 95 kts 173°
2026-04-29 02:52 42.77460 141.69054 83 ft 151 kts 173°
2026-04-29 02:52 42.76323 141.69253 446 ft 168 kts 173°
2026-04-29 02:52 42.75163 141.69476 1242 ft 168 kts 172°
2026-04-29 02:52 42.74014 141.69713 1979 ft 169 kts 172°
2026-04-29 02:53 42.72784 141.69968 2417 ft 189 kts 172°
2026-04-29 02:53 42.71402 141.70251 2736 ft 212 kts 172°
2026-04-29 02:53 42.69880 141.70561 3156 ft 232 kts 172°
2026-04-29 02:53 42.68240 141.70893 3839 ft 242 kts 172°
2026-04-29 02:54 42.66562 141.71230 4700 ft 245 kts 173°
2026-04-29 02:54 42.64856 141.71155 5519 ft 249 kts 195°
2026-04-29 02:54 42.63311 141.70111 6328 ft 252 kts 220°
2026-04-29 02:54 42.62224 141.68255 7152 ft 255 kts 245°
2026-04-29 02:55 42.61748 141.65925 7894 ft 262 kts 259°
2026-04-29 02:55 42.61418 141.63403 8415 ft 278 kts 259°
2026-04-29 02:55 42.61081 141.60785 9182 ft 284 kts 260°
2026-04-29 02:55 42.60739 141.58125 9997 ft 288 kts 259°
2026-04-29 02:56 42.60387 141.55421 10706 ft 297 kts 259°
2026-04-29 02:56 42.60011 141.52550 10989 ft 320 kts 259°
2026-04-29 02:56 42.59610 141.49499 11463 ft 334 kts 259°
2026-04-29 02:56 42.59198 141.46370 12180 ft 339 kts 259°
2026-04-29 02:57 42.58779 141.43196 12914 ft 344 kts 259°
2026-04-29 02:57 42.58353 141.39987 13642 ft 348 kts 259°
2026-04-29 02:57 42.57920 141.36749 14339 ft 351 kts 259°
2026-04-29 02:57 42.57478 141.33470 15016 ft 355 kts 259°
2026-04-29 02:58 42.57031 141.30160 15684 ft 359 kts 259°
2026-04-29 02:58 42.56456 141.26852 16315 ft 362 kts 251°
2026-04-29 02:58 42.55487 141.23685 16937 ft 365 kts 246°
2026-04-29 02:58 42.54451 141.20528 17554 ft 369 kts 246°
2026-04-29 02:59 42.53402 141.17334 18155 ft 372 kts 246°
2026-04-29 02:59 42.52347 141.14117 18737 ft 376 kts 246°
2026-04-29 02:59 42.51284 141.10867 19311 ft 379 kts 245°
2026-04-29 02:59 42.50004 141.07735 19863 ft 382 kts 235°
2026-04-29 03:00 42.48297 141.04958 20408 ft 385 kts 225°
2026-04-29 03:00 42.46386 141.02398 20948 ft 388 kts 224°
2026-04-29 03:00 42.44455 140.99821 21451 ft 391 kts 224°
2026-04-29 03:00 42.42510 140.97226 21943 ft 394 kts 224°
2026-04-29 03:01 42.40552 140.94607 22438 ft 398 kts 225°
2026-04-29 03:01 42.38577 140.91966 22916 ft 400 kts 225°
2026-04-29 03:01 42.36586 140.89308 23376 ft 403 kts 224°
2026-04-29 03:01 42.34581 140.86638 23822 ft 406 kts 224°
2026-04-29 03:02 42.32560 140.83952 24253 ft 409 kts 224°
2026-04-29 03:02 42.30526 140.81250 24679 ft 412 kts 224°
2026-04-29 03:02 42.28479 140.78528 25088 ft 414 kts 224°
2026-04-29 03:02 42.26421 140.75788 25494 ft 417 kts 225°
2026-04-29 03:03 42.24353 140.73033 25876 ft 419 kts 224°
2026-04-29 03:03 42.22267 140.70260 26263 ft 422 kts 224°
2026-04-29 03:03 42.20166 140.67476 26635 ft 424 kts 224°
2026-04-29 03:03 42.18053 140.64683 26997 ft 427 kts 224°
2026-04-29 03:04 42.15926 140.61875 27357 ft 429 kts 224°
2026-04-29 03:04 42.13786 140.59054 27706 ft 432 kts 224°
2026-04-29 03:04 42.11605 140.56178 28053 ft 434 kts 224°
2026-04-29 03:04 42.09349 140.53544 28393 ft 436 kts 216°
2026-04-29 03:05 42.06752 140.51413 28723 ft 439 kts 206°
2026-04-29 03:05 42.03904 140.49917 29041 ft 441 kts 196°
2026-04-29 03:05 42.00894 140.48809 29361 ft 444 kts 195°
2026-04-29 03:05 41.97952 140.47720 29670 ft 446 kts 195°
2026-04-29 03:06 41.94918 140.46582 29940 ft 448 kts 196°
2026-04-29 03:06 41.89042 140.44362 30003 ft 425 kts 196°
2026-04-29 03:07 41.83405 140.42253 30004 ft 418 kts 195°
2026-04-29 03:07 41.77805 140.40171 30004 ft 417 kts 195°
2026-04-29 03:08 41.72208 140.38092 30019 ft 417 kts 195°
2026-04-29 03:08 41.66613 140.36019 30005 ft 417 kts 195°
2026-04-29 03:09 41.61016 140.33950 30011 ft 417 kts 195°
2026-04-29 03:09 41.55421 140.31888 30004 ft 417 kts 195°
2026-04-29 03:10 41.49830 140.29830 30000 ft 417 kts 195°
2026-04-29 03:10 41.44245 140.27763 29999 ft 417 kts 195°
2026-04-29 03:11 41.39601 140.26056 29999 ft 417 kts 195°
2026-04-29 03:11 41.34011 140.24010 29997 ft 416 kts 195°
2026-04-29 03:12 41.28428 140.21963 29996 ft 416 kts 195°
2026-04-29 03:12 41.22846 140.19925 29994 ft 416 kts 195°
2026-04-29 03:13 41.17265 140.17893 29993 ft 416 kts 195°
2026-04-29 03:13 41.11684 140.15869 29994 ft 416 kts 195°
2026-04-29 03:14 41.06085 140.13922 29993 ft 416 kts 194°
2026-04-29 03:14 41.00481 140.12007 29995 ft 416 kts 194°
2026-04-29 03:15 40.94881 140.10077 29994 ft 416 kts 195°
2026-04-29 03:15 40.89278 140.08146 29994 ft 416 kts 194°
2026-04-29 03:16 40.83681 140.06225 29994 ft 416 kts 195°
2026-04-29 03:16 40.78083 140.04298 29993 ft 416 kts 195°
2026-04-29 03:17 40.72486 140.02371 29993 ft 416 kts 195°
2026-04-29 03:17 40.66890 140.00458 29992 ft 415 kts 194°
2026-04-29 03:18 40.61294 139.98550 29992 ft 415 kts 194°
2026-04-29 03:18 40.55702 139.96639 29991 ft 415 kts 195°
2026-04-29 03:19 40.50111 139.94727 29993 ft 415 kts 195°
2026-04-29 03:19 40.44541 139.92715 29990 ft 415 kts 201°
2026-04-29 03:20 40.39356 139.89410 29990 ft 415 kts 207°
2026-04-29 03:20 40.34225 139.85940 29991 ft 415 kts 207°
2026-04-29 03:21 40.29091 139.82487 29991 ft 415 kts 207°
2026-04-29 03:21 40.23951 139.79041 29992 ft 415 kts 207°
2026-04-29 03:22 40.18812 139.75594 29993 ft 415 kts 207°
2026-04-29 03:22 40.13668 139.72159 29994 ft 415 kts 207°
2026-04-29 03:23 40.08528 139.68727 29993 ft 415 kts 207°
2026-04-29 03:23 40.03348 139.65283 29995 ft 415 kts 207°
2026-04-29 03:24 39.98218 139.61934 29994 ft 415 kts 206°
2026-04-29 03:24 39.93016 139.58560 29994 ft 415 kts 206°
2026-04-29 03:25 39.87851 139.55208 29994 ft 415 kts 206°
2026-04-29 03:25 39.82685 139.51860 29993 ft 415 kts 206°
2026-04-29 03:26 39.77520 139.48521 29992 ft 414 kts 206°
2026-04-29 03:26 39.72359 139.45188 29992 ft 414 kts 206°
2026-04-29 03:27 39.67195 139.41858 29991 ft 414 kts 206°
2026-04-29 03:27 39.62033 139.38532 29991 ft 414 kts 206°
2026-04-29 03:28 39.56864 139.35217 29993 ft 415 kts 206°
2026-04-29 03:28 39.51692 139.31902 29993 ft 415 kts 206°
2026-04-29 03:29 39.46522 139.28587 29996 ft 415 kts 206°
2026-04-29 03:29 39.41348 139.25281 29997 ft 415 kts 206°
2026-04-29 03:30 39.36171 139.21977 29998 ft 415 kts 206°
2026-04-29 03:30 39.31002 139.18675 29998 ft 415 kts 206°
2026-04-29 03:31 39.23235 139.13740 29997 ft 415 kts 206°
2026-04-29 03:31 39.18061 139.10455 29997 ft 414 kts 206°
2026-04-29 03:32 39.12886 139.07179 29996 ft 414 kts 206°
2026-04-29 03:32 39.07714 139.03905 29995 ft 414 kts 206°
2026-04-29 03:33 39.02543 139.00634 29996 ft 414 kts 206°
2026-04-29 03:33 38.97367 138.97372 29996 ft 414 kts 206°
2026-04-29 03:34 38.92194 138.94121 29996 ft 414 kts 206°
2026-04-29 03:34 38.87021 138.90870 29994 ft 414 kts 206°
2026-04-29 03:35 38.81853 138.87624 29992 ft 413 kts 206°
2026-04-29 03:35 38.76685 138.84382 29991 ft 414 kts 206°
2026-04-29 03:36 38.71514 138.81144 29991 ft 414 kts 206°
2026-04-29 03:36 38.66339 138.77921 29992 ft 414 kts 206°
2026-04-29 03:37 38.61161 138.74705 29993 ft 414 kts 206°
2026-04-29 03:37 38.55980 138.71486 29995 ft 414 kts 206°
2026-04-29 03:38 38.50797 138.68261 29997 ft 414 kts 206°
2026-04-29 03:38 38.45618 138.65040 30001 ft 414 kts 206°
2026-04-29 03:39 38.40428 138.61827 30000 ft 414 kts 206°
2026-04-29 03:39 38.35244 138.58621 30000 ft 414 kts 206°
2026-04-29 03:40 38.30063 138.55419 29998 ft 414 kts 206°
2026-04-29 03:40 38.24882 138.52232 29996 ft 414 kts 206°
2026-04-29 03:41 38.19703 138.49042 29995 ft 413 kts 206°
2026-04-29 03:41 38.14522 138.45862 29996 ft 414 kts 206°
2026-04-29 03:42 38.09359 138.42644 29994 ft 413 kts 210°
2026-04-29 03:42 38.04973 138.37996 29992 ft 413 kts 230°
2026-04-29 03:43 38.01620 138.32095 29991 ft 412 kts 234°
2026-04-29 03:43 37.98304 138.26160 29990 ft 413 kts 234°
2026-04-29 03:44 37.94976 138.20232 29990 ft 413 kts 234°
2026-04-29 03:44 37.91644 138.14316 29991 ft 413 kts 234°
2026-04-29 03:45 37.88305 138.08395 29993 ft 413 kts 234°
2026-04-29 03:45 37.84975 138.02473 29993 ft 413 kts 234°
2026-04-29 03:46 37.81640 137.96554 29994 ft 413 kts 234°
2026-04-29 03:46 37.78297 137.90644 29995 ft 413 kts 234°
2026-04-29 03:47 37.74945 137.84738 29997 ft 413 kts 234°
2026-04-29 03:47 37.71591 137.78841 29998 ft 413 kts 234°
2026-04-29 03:48 37.68236 137.72945 30000 ft 413 kts 234°
2026-04-29 03:48 37.64880 137.67056 30000 ft 413 kts 234°
2026-04-29 03:49 37.61529 137.61169 29998 ft 413 kts 234°
2026-04-29 03:49 37.58719 137.56247 29997 ft 413 kts 234°
2026-04-29 03:50 37.55363 137.50378 29995 ft 412 kts 234°
2026-04-29 03:50 37.51999 137.44525 29995 ft 413 kts 234°
2026-04-29 03:51 37.48634 137.38669 29995 ft 413 kts 234°
2026-04-29 03:51 37.45267 137.32818 29996 ft 413 kts 234°
2026-04-29 03:52 37.41899 137.26973 29995 ft 413 kts 234°
2026-04-29 03:52 37.38521 137.21132 29996 ft 413 kts 234°
2026-04-29 03:53 37.35142 137.15300 29997 ft 413 kts 234°
2026-04-29 03:53 37.31762 137.09465 29998 ft 413 kts 234°
2026-04-29 03:54 37.28381 137.03641 29998 ft 413 kts 234°
2026-04-29 03:54 37.24997 136.97819 29998 ft 412 kts 234°
2026-04-29 03:55 37.21610 136.92009 29997 ft 412 kts 233°
2026-04-29 03:55 37.18220 136.86210 29996 ft 412 kts 233°
2026-04-29 03:56 37.14834 136.80406 29997 ft 412 kts 234°
2026-04-29 03:56 37.11444 136.74609 29998 ft 412 kts 233°
2026-04-29 03:57 37.08042 136.68824 29997 ft 412 kts 233°
2026-04-29 03:57 37.04639 136.63045 29996 ft 412 kts 233°
2026-04-29 03:58 37.01239 136.57271 29996 ft 412 kts 233°
2026-04-29 03:58 36.97835 136.51508 29995 ft 412 kts 233°
2026-04-29 03:59 36.94430 136.45746 29994 ft 412 kts 233°
2026-04-29 03:59 36.91023 136.39996 29994 ft 412 kts 233°
2026-04-29 04:00 36.87611 136.34252 29994 ft 412 kts 233°
2026-04-29 04:00 36.84198 136.28512 29995 ft 412 kts 233°
2026-04-29 04:01 36.80778 136.22779 29993 ft 412 kts 233°
2026-04-29 04:01 36.77358 136.17056 29993 ft 411 kts 233°
2026-04-29 04:02 36.73942 136.11335 29992 ft 411 kts 233°
2026-04-29 04:02 36.70524 136.05618 29992 ft 411 kts 233°
2026-04-29 04:03 36.67098 135.99902 29994 ft 412 kts 233°
2026-04-29 04:03 36.63674 135.94186 29996 ft 412 kts 233°
2026-04-29 04:04 36.60250 135.88472 29997 ft 412 kts 233°
2026-04-29 04:04 36.56820 135.82761 29998 ft 412 kts 233°
2026-04-29 04:05 36.53383 135.77062 29998 ft 412 kts 233°
2026-04-29 04:05 36.49943 135.71372 29998 ft 412 kts 233°
2026-04-29 04:06 36.46511 135.65681 29998 ft 412 kts 233°
2026-04-29 04:06 36.43075 135.59994 29999 ft 412 kts 233°
2026-04-29 04:07 36.39629 135.54317 29999 ft 412 kts 233°
2026-04-29 04:07 36.36180 135.48649 29999 ft 412 kts 233°
2026-04-29 04:08 36.32731 135.42978 30002 ft 412 kts 233°
2026-04-29 04:08 36.29279 135.37313 30001 ft 412 kts 233°
2026-04-29 04:09 36.25822 135.31656 30012 ft 412 kts 233°
2026-04-29 04:09 36.22359 135.26002 30001 ft 412 kts 233°
2026-04-29 04:10 36.18526 135.20774 30000 ft 411 kts 218°
2026-04-29 04:10 36.13981 135.16477 29999 ft 411 kts 217°
2026-04-29 04:11 36.09432 135.12196 29999 ft 411 kts 217°
2026-04-29 04:11 36.04890 135.07905 29998 ft 411 kts 217°
2026-04-29 04:12 36.00342 135.03625 29998 ft 411 kts 217°
2026-04-29 04:12 35.95786 134.99361 29997 ft 411 kts 217°
2026-04-29 04:13 35.91238 134.95090 29996 ft 411 kts 217°
2026-04-29 04:13 35.86693 134.90822 29996 ft 411 kts 217°
2026-04-29 04:14 35.82145 134.86558 29997 ft 411 kts 217°
2026-04-29 04:14 35.77594 134.82308 29996 ft 411 kts 217°
2026-04-29 04:15 35.73041 134.78061 29996 ft 411 kts 217°
2026-04-29 04:15 35.68484 134.73823 29996 ft 410 kts 217°
2026-04-29 04:16 35.63926 134.69593 29996 ft 410 kts 217°
2026-04-29 04:16 35.59376 134.65358 29997 ft 410 kts 217°
2026-04-29 04:17 35.54822 134.61121 29996 ft 410 kts 217°
2026-04-29 04:17 35.50268 134.56897 29996 ft 410 kts 217°
2026-04-29 04:18 35.45706 134.52685 29995 ft 410 kts 217°
2026-04-29 04:18 35.41147 134.48485 29812 ft 407 kts 217°
2026-04-29 04:19 35.38895 134.46412 29556 ft 404 kts 217°
2026-04-29 04:19 35.36657 134.44349 29312 ft 401 kts 217°
2026-04-29 04:19 35.34430 134.42298 29068 ft 400 kts 217°
2026-04-29 04:19 35.32216 134.40255 28812 ft 398 kts 217°
2026-04-29 04:20 35.30008 134.38216 28563 ft 396 kts 217°
2026-04-29 04:20 35.27810 134.36190 28313 ft 395 kts 217°
2026-04-29 04:20 35.25591 134.34147 28055 ft 393 kts 217°
2026-04-29 04:20 35.23437 134.32170 27812 ft 392 kts 217°
2026-04-29 04:21 35.21230 134.30153 27558 ft 390 kts 217°
2026-04-29 04:21 35.19073 134.28184 27263 ft 384 kts 217°
2026-04-29 04:21 35.16944 134.26237 26827 ft 380 kts 217°
2026-04-29 04:21 35.14837 134.24308 26385 ft 377 kts 217°
2026-04-29 04:22 35.12752 134.22395 25937 ft 374 kts 217°
2026-04-29 04:22 35.10683 134.20497 25494 ft 371 kts 217°
2026-04-29 04:22 35.08626 134.18619 25034 ft 368 kts 217°
2026-04-29 04:22 35.06582 134.16754 24568 ft 366 kts 217°
2026-04-29 04:23 35.04551 134.14903 24103 ft 363 kts 217°
2026-04-29 04:23 35.02531 134.13062 23630 ft 361 kts 217°
2026-04-29 04:23 35.00521 134.11231 23156 ft 360 kts 217°
2026-04-29 04:23 34.98517 134.09417 22685 ft 358 kts 214°
2026-04-29 04:24 34.96335 134.07975 22214 ft 357 kts 201°
2026-04-29 04:24 34.93951 134.07168 21750 ft 356 kts 188°
2026-04-29 04:24 34.91487 134.07027 21289 ft 355 kts 176°
2026-04-29 04:24 34.89042 134.07395 20831 ft 353 kts 172°
2026-04-29 04:25 34.86610 134.07791 20372 ft 352 kts 173°
2026-04-29 04:25 34.84185 134.08181 19921 ft 351 kts 173°
2026-04-29 04:25 34.81769 134.08567 19469 ft 349 kts 173°
2026-04-29 04:25 34.79365 134.08949 19021 ft 348 kts 173°
2026-04-29 04:26 34.76970 134.09327 18577 ft 346 kts 173°
2026-04-29 04:26 34.75390 134.09576 18278 ft 345 kts 173°
2026-04-29 04:26 34.72214 134.10082 17703 ft 343 kts 173°
2026-04-29 04:26 34.70649 134.10335 17419 ft 342 kts 173°
2026-04-29 04:27 34.68293 134.10717 16993 ft 341 kts 173°
2026-04-29 04:27 34.65948 134.11094 16574 ft 339 kts 173°
2026-04-29 04:27 34.63615 134.11468 16156 ft 338 kts 173°
2026-04-29 04:27 34.61291 134.11837 15749 ft 336 kts 173°
2026-04-29 04:28 34.58973 134.12208 15342 ft 335 kts 173°
2026-04-29 04:28 34.56683 134.12661 14932 ft 333 kts 166°
2026-04-29 04:28 34.54522 134.13658 14526 ft 332 kts 152°
2026-04-29 04:28 34.52534 134.15071 14121 ft 331 kts 149°
2026-04-29 04:29 34.50555 134.16495 13679 ft 331 kts 149°
2026-04-29 04:29 34.48581 134.17911 13266 ft 329 kts 150°
2026-04-29 04:29 34.46612 134.19319 12852 ft 328 kts 150°
2026-04-29 04:29 34.44653 134.20721 12446 ft 326 kts 150°
2026-04-29 04:30 34.42704 134.22114 12028 ft 324 kts 150°
2026-04-29 04:30 34.40765 134.23494 11613 ft 323 kts 150°
2026-04-29 04:30 34.36963 134.26202 11156 ft 307 kts 150°
2026-04-29 04:31 34.35153 134.27496 11020 ft 297 kts 150°
2026-04-29 04:31 34.33397 134.28725 10952 ft 285 kts 154°
2026-04-29 04:31 34.31636 134.29702 10960 ft 275 kts 156°
2026-04-29 04:31 34.29907 134.30660 10961 ft 272 kts 156°
2026-04-29 04:32 34.28188 134.31618 10962 ft 272 kts 156°
2026-04-29 04:32 34.26469 134.32575 10962 ft 272 kts 156°
2026-04-29 04:32 34.24750 134.33532 10962 ft 272 kts 156°
2026-04-29 04:32 34.23031 134.34489 10961 ft 272 kts 156°
2026-04-29 04:33 34.21314 134.35446 10962 ft 272 kts 156°
2026-04-29 04:33 34.19537 134.36208 10962 ft 271 kts 169°
2026-04-29 04:33 34.17663 134.36431 10964 ft 271 kts 178°
2026-04-29 04:33 34.15778 134.36518 10962 ft 271 kts 178°
2026-04-29 04:34 34.13893 134.36604 10962 ft 271 kts 178°
2026-04-29 04:34 34.12009 134.36690 10961 ft 271 kts 178°
2026-04-29 04:34 34.10125 134.36778 10962 ft 271 kts 178°
2026-04-29 04:34 34.08249 134.36991 10962 ft 271 kts 168°
2026-04-29 04:35 34.06471 134.37742 10961 ft 272 kts 155°
2026-04-29 04:35 34.04756 134.38702 10961 ft 272 kts 155°
2026-04-29 04:35 34.03037 134.39652 10962 ft 272 kts 156°
2026-04-29 04:35 34.01316 134.40603 10963 ft 272 kts 156°
2026-04-29 04:36 33.99596 134.41554 10962 ft 272 kts 156°
2026-04-29 04:36 33.97897 134.42559 10962 ft 272 kts 148°
2026-04-29 04:36 33.96430 134.43989 10962 ft 273 kts 134°
2026-04-29 04:36 33.95143 134.45670 10962 ft 273 kts 133°
2026-04-29 04:37 33.93853 134.47349 10963 ft 273 kts 133°
2026-04-29 04:37 33.92561 134.49027 10962 ft 273 kts 133°
2026-04-29 04:37 33.91270 134.50702 10960 ft 273 kts 133°
2026-04-29 04:37 33.89998 134.52397 10962 ft 273 kts 128°
2026-04-29 04:38 33.89029 134.54359 10961 ft 274 kts 113°
2026-04-29 04:38 33.88360 134.56506 10962 ft 274 kts 110°
2026-04-29 04:38 33.87699 134.58656 10962 ft 274 kts 111°
2026-04-29 04:38 33.87063 134.60817 10961 ft 274 kts 104°
2026-04-29 04:39 33.86988 134.63091 10960 ft 274 kts 78°
2026-04-29 04:39 33.87730 134.65188 10953 ft 275 kts 54°
2026-04-29 04:39 33.89143 134.66724 10641 ft 276 kts 27°
2026-04-29 04:39 33.90958 134.67388 10371 ft 273 kts
2026-04-29 04:40 33.92830 134.67737 10107 ft 272 kts
2026-04-29 04:40 33.94694 134.68089 9842 ft 271 kts
2026-04-29 04:40 33.96551 134.68444 9582 ft 270 kts
2026-04-29 04:40 33.98397 134.68801 9325 ft 268 kts
2026-04-29 04:41 34.00238 134.69161 9064 ft 267 kts
2026-04-29 04:41 34.02070 134.69520 8806 ft 266 kts
2026-04-29 04:41 34.03896 134.69876 8546 ft 265 kts
2026-04-29 04:41 34.05714 134.70229 8294 ft 264 kts
2026-04-29 04:42 34.07526 134.70580 8041 ft 263 kts
2026-04-29 04:42 34.09331 134.70931 7777 ft 262 kts
2026-04-29 04:42 34.11129 134.71281 7521 ft 261 kts
2026-04-29 04:42 34.12915 134.71660 7282 ft 260 kts 15°
2026-04-29 04:43 34.14556 134.72550 7029 ft 259 kts 34°
2026-04-29 04:43 34.15858 134.74033 6789 ft 258 kts 54°
2026-04-29 04:43 34.16768 134.75897 6554 ft 258 kts 62°
2026-04-29 04:43 34.17623 134.77796 6319 ft 257 kts 62°
2026-04-29 04:44 34.18480 134.79687 6075 ft 256 kts 61°
2026-04-29 04:44 34.19337 134.81570 5846 ft 255 kts 61°
2026-04-29 04:44 34.20191 134.83445 5614 ft 254 kts 61°
2026-04-29 04:44 34.21041 134.85317 5372 ft 254 kts 61°
2026-04-29 04:45 34.21886 134.87182 5142 ft 253 kts 62°
2026-04-29 04:45 34.22727 134.89042 4916 ft 252 kts 62°
2026-04-29 04:45 34.23566 134.90896 4675 ft 251 kts 62°
2026-04-29 04:45 34.24399 134.92745 4451 ft 250 kts 62°
2026-04-29 04:46 34.25286 134.94548 4222 ft 249 kts 52°
2026-04-29 04:46 34.26379 134.96170 3985 ft 249 kts 50°
2026-04-29 04:46 34.27473 134.97781 3767 ft 248 kts 51°
2026-04-29 04:46 34.28564 134.99393 3540 ft 247 kts 51°
2026-04-29 04:47 34.29648 135.00999 3314 ft 246 kts 51°
2026-04-29 04:47 34.30729 135.02601 3095 ft 245 kts 51°
2026-04-29 04:47 34.31805 135.04197 2868 ft 245 kts 51°
2026-04-29 04:47 34.32834 135.05830 2645 ft 243 kts 60°
2026-04-29 04:48 34.33468 135.07686 2424 ft 236 kts 76°
2026-04-29 04:48 34.33872 135.09580 2208 ft 229 kts 76°
2026-04-29 04:48 34.34288 135.11417 2002 ft 224 kts 71°
2026-04-29 04:48 34.35063 135.13013 1800 ft 219 kts 51°
2026-04-29 04:49 34.36018 135.14425 1649 ft 213 kts 51°
2026-04-29 04:49 34.36934 135.15783 1476 ft 202 kts 51°
2026-04-29 04:49 34.37772 135.17028 1271 ft 180 kts 51°
2026-04-29 04:49 34.38522 135.18142 1057 ft 161 kts 51°
2026-04-29 04:50 34.39200 135.19150 833 ft 149 kts 51°
2026-04-29 04:50 34.39839 135.20101 640 ft 144 kts 51°
2026-04-29 04:50 34.40465 135.21034 426 ft 142 kts 51°
2026-04-29 04:50 34.41083 135.21952 258 ft 140 kts 51°
2026-04-29 04:51 34.41707 135.22878 79 ft 140 kts 51°
2026-04-29 04:51 34.42283 135.23738 13 ft 117 kts 51°
2026-04-29 04:51 34.42683 135.24337 18 ft 67 kts 50°
2026-04-29 04:51 34.42917 135.24684 14 ft 34 kts 49°
2026-04-29 04:52 34.43083 135.24834 17 ft 29 kts 24°
2026-04-29 04:52 34.43259 135.24918 18 ft 20 kts 21°
2026-04-29 04:52 34.43342 135.24934 21 ft 11 kts 336°
2026-04-29 04:52 34.43366 135.24836 20 ft 16 kts 240°
2026-04-29 04:53 34.43288 135.24718 19 ft 19 kts 231°
2026-04-29 04:53 34.43199 135.24586 19 ft 22 kts 231°
2026-04-29 04:53 34.43097 135.24435 19 ft 24 kts 231°
2026-04-29 04:53 34.42988 135.24272 19 ft 26 kts 231°
2026-04-29 04:54 34.42872 135.24097 19 ft 27 kts 231°
2026-04-29 04:54 34.42750 135.23915 19 ft 29 kts 231°
2026-04-29 04:54 34.42622 135.23724 19 ft 24 kts 231°
2026-04-29 04:54 34.42580 135.23602 19 ft 16 kts 291°
2026-04-29 04:55 34.42670 135.23502 20 ft 22 kts 321°
2026-04-29 04:55 34.42813 135.23361 19 ft 28 kts 321°
2026-04-29 04:55 34.42971 135.23207 24 ft 29 kts 321°
2026-04-29 04:55 34.43129 135.23053 30 ft 29 kts 321°
2026-04-29 04:56 34.43278 135.22908 29 ft 24 kts 321°
2026-04-29 04:56 34.43387 135.22811 29 ft 14 kts 347°
2026-04-29 04:56 34.43460 135.22880 29 ft 16 kts 51°
2026-04-29 04:56 34.43532 135.22934 29 ft 11 kts 346°
2026-04-29 04:57 34.43596 135.22883 29 ft 10 kts 339°
2026-04-29 04:57 34.43641 135.22921 29 ft 7 kts 52°
2026-04-29 04:57 34.43658 135.22948 29 ft 2 kts 51°
2026-04-29 04:57 34.43660 135.22950 29 ft 0 kts 51°